Location: Payette
(44.0782°N, 116.9338°W)
Time: 11:43:47
(UTC-06:00)

Envisat - Visible Passes

Search period start: 23 October 2019 00:00
Search period end: 02 November 2019 00:00
Orbit: 764 x 766 km, 98.1° (Epoch: 23 October)

Date Brightness Start Highest point End Pass type
(mag) Time Alt. Az. Time Alt. Az. Time Alt. Az.
23 Oct 2.9 19:40:34 10° SSE 19:45:37 77° ENE 19:50:43 10° N visible
23 Oct 6.1 21:22:49 10° WSW 21:25:14 13° W 21:27:39 10° WNW visible
24 Oct 5.0 20:43:43 10° SSW 20:48:04 29° W 20:52:28 10° NW visible
25 Oct 6.7 07:14:25 10° ENE 07:15:29 11° E 07:16:34 10° E visible
25 Oct 3.5 20:06:07 10° S 20:11:08 62° W 20:16:11 10° NNW visible
26 Oct 3.0 19:29:23 10° SSE 19:34:23 62° ENE 19:39:24 10° N visible
26 Oct 5.8 21:10:35 10° SW 21:13:49 17° W 21:17:05 10° NW visible
27 Oct 6.0 07:37:44 10° NE 07:41:19 19° E 07:44:53 10° SE visible
27 Oct 4.6 20:32:05 10° SSW 20:36:44 36° W 20:41:25 10° NNW visible
28 Oct 3.1 19:54:46 10° S 19:59:51 78° WSW 20:04:57 10° NNW visible
29 Oct 3.2 19:18:17 10° SE 19:23:09 49° ENE 19:28:03 10° N visible
29 Oct 5.5 20:58:37 10° SW 21:02:26 21° W 21:06:17 10° NW visible
30 Oct 6.2 07:27:01 10° NE 07:29:56 15° E 07:32:49 10° SE visible
30 Oct 4.1 20:20:34 10° S 20:25:25 45° W 20:30:18 10° NNW visible
31 Oct 2.9 19:43:31 10° SSE 19:48:35 84° ENE 19:53:41 10° NNW visible
31 Oct 6.2 21:26:18 10° WSW 21:28:15 12° W 21:30:12 10° WNW visible
01 Nov 5.6 07:51:28 10° NE 07:55:42 26° E 07:59:54 10° SSE visible
01 Nov 3.4 19:07:15 10° SE 19:11:57 40° ENE 19:16:39 10° N visible
01 Nov 5.1 20:46:51 10° SSW 20:51:05 26° W 20:55:20 10° NW visible
